FW9665 Weather Reports


time (UTC)temp
C
wind
direction
speed
KPH
gust
KPH
rain 1hr
cm
rain 24hr
cm
rain mn
cm
humidity
%
barometer
mb
20260505041516 11 0 1.6 4.8 0.05 0.23 0.23 89 1011.5
20260505041016 11 338 1.6 4.8 0.05 0.23 0.23 89 1011.6
20260505040516 11 338 3.2 8.0 0.05 0.23 0.23 88 1011.6
20260505040036 11 45 4.8 12.9 0.05 0.23 0.23 88 1011.5
20260505035516 11 338 4.8 8.0 0.05 0.23 0.23 88 1011.5
20260505035016 11 0 3.2 12.9 0.05 0.23 0.23 88 1011.7
20260505034516 11 338 6.4 12.9 0.05 0.23 0.23 88 1011.7
20260505034016 11 113 3.2 8.0 0.05 0.23 0.23 88 1011.7
20260505033516 11 315 1.6 4.8 0.05 0.23 0.23 88 1011.9
20260505033016 11 315 1.6 4.8 0.03 0.20 0.20 88 1011.9
20260505032556 11 338 3.2 4.8 0.03 0.20 0.20 88 1012.3
20260505032016 11 338 1.6 9.7 0.03 0.20 0.20 87 1012.3
20260505031536 11 315 4.8 9.7 0.00 0.18 0.18 88 1012.3
20260505031016 11 23 1.6 4.8 0.00 0.18 0.18 87 1012.2
20260505030516 11 0 1.6 3.2 0.00 0.18 0.18 87 1012.3
20260505030016 11 0.0 3.2 0.00 0.18 0.18 87 1012.4
20260505025556 11 0.0 3.2 0.00 0.18 0.18 86 1012.5
20260505025016 11 0.0 1.6 0.00 0.18 0.18 86 1012.6
20260505024516 11 0.0 1.6 0.00 0.18 0.18 86 1012.7
20260505024016 11 0.0 1.6 0.03 0.18 0.18 86 1012.8
20260505023516 11 0.0 1.6 0.03 0.18 0.18 86 1012.9
20260505023016 11 338 1.6 3.2 0.03 0.18 0.18 86 1013.0
20260505022516 11 0.0 1.6 0.05 0.18 0.18 86 1013.0
20260505022016 11 338 1.6 3.2 0.05 0.18 0.18 86 1013.0
20260505021516 11 23 1.6 3.2 0.05 0.18 0.18 86 1013.2
20260505021016 11 0.0 0.0 0.08 0.18 0.18 86 1013.2
20260505020516 11 0.0 0.0 0.08 0.18 0.18 86 1013.2
20260505020016 11 0.0 1.6 0.10 0.18 0.18 86 1013.3
20260505015516 11 0 1.6 3.2 0.10 0.18 0.18 85 1013.3
20260505015016 11 0 1.6 1.6 0.13 0.18 0.18 85 1013.3
20260505014516 11 23 1.6 3.2 0.13 0.18 0.18 85 1013.4
20260505014016 11 0.0 3.2 0.10 0.15 0.15 85 1013.5
20260505013516 11 0.0 0.0 0.10 0.15 0.15 84 1013.5
20260505013016 11 0.0 0.0 0.10 0.15 0.15 84 1013.5
20260505012516 11 0.0 1.6 0.08 0.13 0.13 84 1013.6
20260505012016 11 158 1.6 3.2 0.08 0.13 0.13 84 1013.5
20260505011516 11 0.0 1.6 0.08 0.13 0.13 84 1013.7
20260505011016 11 0.0 3.2 0.05 0.10 0.10 84 1013.8
20260505010516 11 0.0 1.6 0.05 0.10 0.10 83 1013.9
20260505010016 11 0.0 0.0 0.03 0.08 0.08 83 1013.9
20260505005516 11 0.0 1.6 0.03 0.08 0.08 83 1014.0
20260505005016 11 338 3.2 4.8 0.00 0.05 0.05 83 1014.1
20260505004536 11 0.0 1.6 0.00 0.05 0.05 83 1014.3
20260505004016 11 338 1.6 4.8 0.00 0.05 0.05 83 1014.4
20260505003536 11 45 1.6 3.2 0.00 0.05 0.05 83 1014.4
20260505003036 11 0.0 3.2 0.00 0.05 0.05 83 1014.4
20260505002516 11 90 1.6 3.2 0.00 0.05 0.05 83 1014.3
20260505002015 11 0.0 1.6 0.00 0.05 0.05 82 1014.4
20260505001516 11 338 1.6 3.2 0.00 0.05 0.05 82 1014.5
20260505001016 12 338 1.6 3.2 0.00 0.05 0.05 82 1014.6
20260505000515 12 338 1.6 1.6 0.00 0.05 0.05 82 1014.7
20260505000016 12 338 1.6 4.8 0.00 0.05 0.05 81 1014.8
20260504235516 12 0 3.2 4.8 0.03 0.05 0.05 81 1014.8
20260504235016 12 0 1.6 3.2 0.05 0.05 0.05 80 1014.8
20260504234515 12 0.0 1.6 0.05 0.05 0.05 80 1014.9
20260504234015 12 0.0 1.6 0.05 0.05 0.05 80 1014.8
20260504233516 12 0.0 1.6 0.05 0.05 0.05 80 1015.0
20260504233016 12 0.0 1.6 0.05 0.05 0.05 79 1015.0
20260504232536 12 0.0 1.6 0.05 0.05 0.05 79 1015.0
20260504232015 12 0.0 1.6 0.05 0.05 0.05 79 1015.2
20260504231516 12 0.0 3.2 0.05 0.05 0.05 79 1015.2
20260504231015 12 0.0 3.2 0.05 0.05 0.05 79 1015.2
20260504230516 12 0.0 3.2 0.05 0.05 0.05 79 1015.3
20260504230016 12 338 1.6 4.8 0.05 0.05 0.05 79 1015.4
20260504225516 12 338 1.6 3.2 0.03 0.03 0.03 78 1015.6
20260504225016 12 338 1.6 4.8 0.00 0.00 0.00 78 1015.6
20260504224516 12 338 1.6 3.2 0.00 0.00 0.00 78 1015.6
20260504224015 12 0 1.6 3.2 0.00 0.00 0.00 77 1015.5
20260504223536 12 0.0 1.6 0.00 0.00 0.00 77 1015.6
20260504223015 12 0.0 1.6 0.00 0.00 0.00 77 1015.7
20260504222515 12 0.0 4.8 0.00 0.00 0.00 76 1015.7
20260504222016 12 45 1.6 4.8 0.00 0.00 0.00 76 1015.8
20260504221515 12 0.0 1.6 0.00 0.00 0.00 75 1016.0
20260504221015 12 0.0 0.0 0.00 0.00 0.00 75 1015.9
20260504220536 12 0.0 3.2 0.00 0.00 0.00 75 1016.0
20260504220016 12 0.0 3.2 0.00 0.00 0.00 75 1016.0
20260504215516 12 0.0 3.2 0.00 0.00 0.00 75 1016.0
20260504215016 12 0.0 3.2 0.00 0.00 0.00 75 1016.0
20260504214516 12 338 1.6 3.2 0.00 0.00 0.00 75 1015.9
20260504214036 12 315 4.8 6.4 0.00 0.00 0.00 74 1016.0
20260504213516 12 315 1.6 6.4 0.00 0.00 0.00 74 1016.1
20260504213016 12 315 1.6 3.2 0.00 0.00 0.00 73 1016.1
20260504212516 12 0.0 1.6 0.00 0.00 0.00 73 1016.0
20260504212016 12 0.0 1.6 0.00 0.00 0.00 73 1016.2
20260504211516 12 315 3.2 4.8 0.00 0.00 0.00 73 1016.2
20260504211016 12 338 3.2 4.8 0.00 0.00 0.00 73 1016.3
20260504210516 13 0 1.6 4.8 0.00 0.00 0.00 72 1016.2
20260504210016 13 45 1.6 3.2 0.00 0.00 0.00 72 1016.2
20260504205516 13 0.0 1.6 0.00 0.00 0.00 72 1016.1
20260504205016 13 68 1.6 3.2 0.00 0.00 0.00 71 1016.0
20260504204516 13 0.0 1.6 0.00 0.00 0.00 71 1016.1
20260504204016 13 0.0 1.6 0.00 0.00 0.00 71 1016.1
20260504203516 13 0.0 0.0 0.00 0.00 0.00 70 1016.2
20260504203016 13 0.0 0.0 0.00 0.00 0.00 70 1016.1
20260504202536 13 135 1.6 3.2 0.00 0.00 0.00 71 1016.2
20260504202016 13 0.0 3.2 0.00 0.00 0.00 70 1016.3
20260504201536 13 90 1.6 3.2 0.00 0.00 0.00 69 1016.3
20260504201016 13 0.0 3.2 0.00 0.00 0.00 69 1016.4
20260504200516 13 0.0 3.2 0.00 0.00 0.00 69 1016.4
20260504200016 13 113 1.6 4.8 0.00 0.00 0.00 68 1016.2
20260504195536 13 135 3.2 4.8 0.00 0.00 0.00 68 1016.1
20260504195016 13 113 3.2 6.4 0.00 0.00 0.00 68 1016.1
20260504194516 13 113 1.6 6.4 0.00 0.00 0.00 67 1015.9
20260504194016 13 0.0 4.8 0.00 0.00 0.00 68 1016.0
20260504193516 13 0.0 1.6 0.00 0.00 0.00 67 1015.9
20260504193016 13 0.0 1.6 0.00 0.00 0.00 67 1015.8
20260504192536 13 0.0 1.6 0.00 0.00 0.00 68 1015.8
20260504192016 13 0.0 0.0 0.00 0.00 0.00 68 1015.9
20260504191516 13 68 1.6 6.4 0.00 0.00 0.00 67 1015.8
20260504191016 13 45 1.6 4.8 0.00 0.00 0.00 67 1015.8
20260504190516 13 45 1.6 3.2 0.00 0.00 0.00 67 1015.7
20260504190015 13 90 1.6 4.8 0.00 0.00 0.00 66 1015.7
20260504185536 13 0.0 3.2 0.00 0.00 0.00 67 1015.6
20260504185016 13 0 1.6 3.2 0.00 0.00 0.00 66 1015.6
20260504184516 13 0.0 3.2 0.00 0.00 0.00 66 1015.6
20260504184015 14 0 1.6 3.2 0.00 0.00 0.00 66 1015.7
20260504183516 14 0.0 3.2 0.00 0.00 0.00 66 1015.7
20260504183015 14 0.0 3.2 0.00 0.00 0.00 65 1015.8
20260504182536 14 0.0 3.2 0.00 0.00 0.00 65 1015.8
20260504182016 14 0.0 1.6 0.00 0.00 0.00 63 1015.8
20260504181516 15 338 1.6 4.8 0.00 0.00 0.00 63 1015.8
20260504181016 15 0.0 0.0 0.00 0.00 0.00 62 1015.8
20260504180516 15 0.0 0.0 0.00 0.00 0.00 63 1015.8
20260504180056 15 0.0 1.6 0.00 0.00 0.00 62 1015.8
20260504175515 15 0.0 0.0 0.00 0.00 0.00 61 1015.7
20260504175036 15 315 1.6 4.8 0.00 0.00 0.00 61 1015.7
20260504174515 15 315 4.8 6.4 0.00 0.00 0.00 61 1015.7
20260504174016 15 315 4.8 6.4 0.00 0.00 0.00 60 1015.5
20260504173516 15 315 4.8 6.4 0.00 0.00 0.00 59 1015.5
20260504173015 15 315 3.2 6.4 0.00 0.00 0.00 59 1015.5
20260504172516 15 338 3.2 6.4 0.00 0.00 0.00 60 1015.5
20260504172015 15 0.0 1.6 0.00 0.00 0.00 61 1015.5
20260504171515 15 0.0 4.8 0.00 0.00 0.00 59 1015.5
20260504171036 16 0 1.6 4.8 0.00 0.00 0.00 58 1015.4
20260504170535 16 338 1.6 4.8 0.00 0.00 0.00 58 1015.4
20260504151056 18 45 8.0 16.1 0.00 0.00 0.00 47 1015.7
20260504150517 18 45 4.8 9.7 0.00 0.00 0.00 49 1015.9
20260504141037 20 113 3.2 8.0 0.00 0.00 0.00 51 1016.2
20260504140517 20 158 1.6 3.2 0.00 0.00 0.00 52 1016.4
20260504130517 18 135 8.0 14.5 0.00 0.00 0.00 54 1016.6
20260504110517 17 45 4.8 11.3 0.00 0.00 0.00 54 1017.4
20260504100517 18 180 1.6 4.8 0.00 0.00 0.00 49 1017.9
20260504081516 16 0.0 1.6 0.00 0.00 0.00 62 1017.7
20260504081036 16 23 1.6 4.8 0.00 0.00 0.00 62 1017.8
20260504080516 15 180 1.6 3.2 0.00 0.00 0.00 62 1017.7
20260504050516 11 338 1.6 3.2 0.00 0.00 0.00 67 1016.8
20260504050016 11 338 4.8 9.7 0.00 0.00 0.00 66 1016.7
20260504045516 11 338 6.4 9.7 0.00 0.00 0.00 67 1017.0